SES-18

Last updated on Tue Nov 19 2024 00:02:44 GMT+0000 (Coordinated Universal Time)

1 55970U 23038A 24322.55885875 -.00000096 00000+0 00000+0 0 9990 2 55970 0.0144 288.0089 0003434 327.1522 260.0499 1.00271528 6325
UTC large
Height (km)
Speed (km/s)
/
Latitude / Longitude
Inclination (degrees)
Orbital Period (minutes)
Azimuth
Elevation
Range (km)
Doppler Factor

Next 0 passes for location: London (51.5072 / 0.1276)

Sorry there are no passes over London.